This is the latest recevied weather packets stored in our database for station/object VE6HFD-WX. If no packets are shown the sender has not sent any weather packets the latest 10 day(s).
| Time | Temp. | Humidity | Pressure | Rain* | Wind** | Luminosity | Snow |
|---|---|---|---|---|---|---|---|
| 1778146386 | 5° C | 62% | 1008.2 hPa | 0 mm | - | - | - |
| 1778146086 | 5° C | 61% | 1008.2 hPa | 0 mm | - | - | - |
| 1778145756 | 5° C | 60% | 1008.2 hPa | 0 mm | - | - | - |
| 1778145426 | 5° C | 60% | 1008.2 hPa | 0 mm | - | - | - |
| 1778145096 | 5° C | 61% | 1008.2 hPa | 0 mm | - | - | - |
| 1778144766 | 5° C | 60% | 1008.2 hPa | 0 mm | - | - | - |
| 1778144466 | 5° C | 62% | 1008.2 hPa | 0 mm | - | - | - |
| 1778144136 | 4.44° C | 65% | 1008.1 hPa | 0 mm | - | - | - |
| 1778143806 | 5° C | 64% | 1008.2 hPa | 0 mm | - | - | - |
| 1778143506 | 4.44° C | 65% | 1008.2 hPa | 0 mm | - | - | - |
| 1778143206 | 5° C | 64% | 1008.2 hPa | 0 mm | - | - | - |
| 1778142877 | 5° C | 64% | 1008.2 hPa | 0 mm | - | - | - |
| 1778142577 | 5.56° C | 64% | 1008.3 hPa | 0 mm | - | - | - |
| 1778142247 | 5.56° C | 64% | 1008.3 hPa | 0 mm | - | - | - |
| 1778141916 | 5.56° C | 63% | 1008.3 hPa | 0 mm | - | - | - |
| 1778141617 | 6.11° C | 63% | 1008.2 hPa | 0 mm | - | - | - |
| 1778141316 | 6.11° C | 63% | 1008 hPa | 0 mm | - | - | - |
| 1778141016 | 6.11° C | 62% | 1008 hPa | 0 mm | - | - | - |
| 1778140687 | 6.11° C | 62% | 1008 hPa | 0 mm | - | - | - |
| 1778140357 | 6.67° C | 62% | 1007.8 hPa | 0 mm | - | - | - |
| 1778140026 | 6.67° C | 60% | 1008 hPa | 0 mm | - | - | - |
| 1778139727 | 6.67° C | 59% | 1008.1 hPa | 0 mm | - | - | - |
| 1778139427 | 6.67° C | 58% | 1008.3 hPa | 0 mm | - | - | - |
| 1778139097 | 7.78° C | 55% | 1008.3 hPa | 0 mm | - | - | - |
| 1778138767 | 7.78° C | 55% | 1008.3 hPa | 0 mm | - | - | - |
* Rain latest hour (hover to see other rain measurements)
** Current wind speed in m/s (hover to see current wind gust speed)